Weather History for Greenville, TX

Change the Weather History Date:

Wednesday, November 9, 2011

  Actual Average Record
Temperature  
Mean Temperature 51 °F -  
Max Temperature 60 °F 64 °F 86 °F (2005)
Min Temperature 42 °F 50 °F 35 °F (2008)
Degree Days  
Heating Degree Days 14    
Growing Degree Days 1 (Base 50)    
Moisture  
Dew Point 35 °F    
Average Humidity 57    
Maximum Humidity 81    
Minimum Humidity 31    
Precipitation  
Precipitation 0.00 in - - ()
Sea Level Pressure  
Sea Level Pressure 30.26 in    
Wind  
Wind Speed 12 mph (NNW)    
Max Wind Speed 20 mph    
Max Gust Speed 28 mph    
Visibility 10 miles    
Events      
Averages and records for this station are not official NWS values.
T = Trace of Precipitation, MM = Missing Value Source: NWS Daily Summary

Daily Weather History Graph

Daily Weather History Graph

Search for Another Location

Airport:

Trip Planner

Search our weather history database for the weather conditions in past years. The results will help you decide how hot, cold, wet, or windy it might be!

Date:

Astronomy

Nov. 09, 2011 Rise Set
Actual Time 6:49 AM CST 5:26 PM CST
Civil Twilight 6:23 AM CST 5:52 PM CST
Nautical Twilight 5:53 AM CST 6:21 PM CST
Astronomical Twilight 5:24 AM CST 6:51 PM CST
Moon 4:39 PM CST (11/9) 5:46 AM CST (11/9)
Length of Visible Light 11h 29m
Length of Day
10h 37m
Waxing Gibbous, 99% of the Moon is Illuminated
Nov 9
Waxing Gibbous
Nov 10
Full
Nov 18
Last Quarter
Nov 25
New
Dec 2
First Quarter

Hourly Weather History & Observations

Time (CST) Temp. Windchill Dew Point Humidity Pressure Visibility Wind Dir Wind Speed Gust Speed Precip Events Conditions
12:15 AM 51.8 °F - 42.8 °F 71% 30.11 in 10.0 mi NW 10.4 mph - N/A   Clear
12:35 AM 50.0 °F - 42.8 °F 76% 30.12 in 10.0 mi WNW 11.5 mph 17.3 mph N/A   Clear
12:55 AM 50.0 °F - 42.8 °F 76% 30.12 in 10.0 mi WNW 9.2 mph - N/A   Clear
1:15 AM 50.0 °F - 41.0 °F 71% 30.13 in 10.0 mi NW 11.5 mph 18.4 mph N/A   Clear
1:35 AM 50.0 °F - 41.0 °F 71% 30.14 in 10.0 mi NW 11.5 mph 23.0 mph N/A   Clear
1:55 AM 50.0 °F - 39.2 °F 66% 30.14 in 10.0 mi NW 15.0 mph 27.6 mph N/A   Clear
2:15 AM 48.2 °F - 39.2 °F 71% 30.15 in 10.0 mi NW 15.0 mph 20.7 mph N/A   Clear
2:35 AM 46.4 °F 41.9 °F 37.4 °F 71% 30.16 in 10.0 mi NW 9.2 mph - N/A   Clear
2:55 AM 46.4 °F 41.1 °F 37.4 °F 71% 30.16 in 10.0 mi NW 11.5 mph - N/A   Clear
3:15 AM 46.4 °F 40.4 °F 37.4 °F 71% 30.17 in 10.0 mi NW 13.8 mph 18.4 mph N/A   Clear
3:35 AM 46.4 °F 40.1 °F 37.4 °F 71% 30.18 in 10.0 mi NW 15.0 mph 18.4 mph N/A   Scattered Clouds
3:55 AM 46.4 °F 40.7 °F 37.4 °F 71% 30.19 in 10.0 mi NW 12.7 mph - N/A   Mostly Cloudy
4:15 AM 46.4 °F 41.5 °F 35.6 °F 66% 30.19 in 10.0 mi NW 10.4 mph - N/A   Scattered Clouds
4:55 AM 44.6 °F 40.2 °F 35.6 °F 71% 30.21 in 10.0 mi NW 8.1 mph - N/A   Clear
5:15 AM 44.6 °F 39.7 °F 37.4 °F 76% 30.22 in 10.0 mi NW 9.2 mph - N/A   Clear
5:35 AM 42.8 °F 38.0 °F 37.4 °F 81% 30.22 in 10.0 mi NW 8.1 mph - N/A   Clear
5:55 AM 42.8 °F 38.0 °F 35.6 °F 76% 30.23 in 10.0 mi NW 8.1 mph - N/A   Clear
6:15 AM 42.8 °F 37.5 °F 35.6 °F 76% 30.24 in 10.0 mi NW 9.2 mph - N/A   Clear
6:35 AM 42.8 °F 35.4 °F 35.6 °F 76% 30.25 in 10.0 mi NNW 15.0 mph - N/A   Clear
6:55 AM 42.8 °F 37.0 °F 35.6 °F 76% 30.26 in 10.0 mi NNW 10.4 mph 18.4 mph N/A   Clear
7:15 AM 44.6 °F 38.1 °F 35.6 °F 71% 30.27 in 10.0 mi NNW 13.8 mph 18.4 mph N/A   Clear
7:35 AM 44.6 °F 38.8 °F 35.6 °F 71% 30.29 in 10.0 mi NNW 11.5 mph - N/A   Scattered Clouds
7:55 AM 46.4 °F 40.1 °F 35.6 °F 66% 30.29 in 10.0 mi NNW 15.0 mph - N/A   Clear
8:15 AM 46.4 °F 40.7 °F 35.6 °F 66% 30.30 in 10.0 mi NNW 12.7 mph - N/A   Clear
8:35 AM 46.4 °F 39.8 °F 35.6 °F 66% 30.32 in 10.0 mi NNW 16.1 mph 23.0 mph N/A   Clear
8:55 AM 48.2 °F - 35.6 °F 62% 30.32 in 10.0 mi NNW 17.3 mph 25.3 mph N/A   Scattered Clouds
9:15 AM 50.0 °F - 35.6 °F 58% 30.33 in 10.0 mi NNW 13.8 mph 25.3 mph N/A   Clear
9:35 AM 50.0 °F - 37.4 °F 62% 30.34 in 10.0 mi North 16.1 mph 21.9 mph N/A   Clear
9:55 AM 51.8 °F - 37.4 °F 58% 30.34 in 10.0 mi NNW 12.7 mph - N/A   Clear
10:15 AM 51.8 °F - 37.4 °F 58% 30.35 in 10.0 mi North 12.7 mph 21.9 mph N/A   Clear
10:35 AM 51.8 °F - 35.6 °F 54% 30.35 in 10.0 mi North 17.3 mph 20.7 mph N/A   Clear
10:55 AM 53.6 °F - 35.6 °F 51% 30.35 in 10.0 mi North 17.3 mph - N/A   Clear
11:15 AM 53.6 °F - 35.6 °F 51% 30.34 in 10.0 mi North 11.5 mph 23.0 mph N/A   Clear
11:35 AM 55.4 °F - 35.6 °F 47% 30.34 in 10.0 mi NNW 12.7 mph 18.4 mph N/A   Clear
11:55 AM 55.4 °F - 35.6 °F 47% 30.33 in 10.0 mi North 13.8 mph 21.9 mph N/A   Clear
12:15 PM 55.4 °F - 33.8 °F 44% 30.33 in 10.0 mi North 13.8 mph 23.0 mph N/A   Clear
12:35 PM 57.2 °F - 32.0 °F 38% 30.32 in 10.0 mi NNW 13.8 mph 24.2 mph N/A   Clear
12:55 PM 59.0 °F - 32.0 °F 36% 30.31 in 10.0 mi NNW 19.6 mph 24.2 mph N/A   Clear
1:15 PM 59.0 °F - 33.8 °F 39% 30.30 in 10.0 mi North 16.1 mph 24.2 mph N/A   Clear
1:35 PM 59.0 °F - 32.0 °F 36% 30.30 in 10.0 mi North 17.3 mph 25.3 mph N/A   Clear
1:55 PM 59.0 °F - 32.0 °F 36% 30.30 in 10.0 mi North 18.4 mph 23.0 mph N/A   Clear
2:15 PM 59.0 °F - 32.0 °F 36% 30.30 in 10.0 mi North 12.7 mph 21.9 mph N/A   Clear
2:35 PM 59.0 °F - 32.0 °F 36% 30.30 in 10.0 mi North 19.6 mph 23.0 mph N/A   Clear
2:55 PM 60.8 °F - 32.0 °F 34% 30.30 in 10.0 mi NNW 18.4 mph 24.2 mph N/A   Clear
3:15 PM 60.8 °F - 32.0 °F 34% 30.29 in 10.0 mi NNW 17.3 mph 23.0 mph N/A   Clear
3:55 PM 59.0 °F - 30.2 °F 34% 30.30 in 10.0 mi North 16.1 mph - N/A   Clear
4:15 PM 59.0 °F - 30.2 °F 34% 30.30 in 10.0 mi North 13.8 mph 20.7 mph N/A   Clear
4:35 PM 59.0 °F - 28.4 °F 31% 30.31 in 10.0 mi North 13.8 mph 17.3 mph N/A   Clear
4:55 PM 57.2 °F - 30.2 °F 36% 30.31 in 10.0 mi North 12.7 mph - N/A   Clear
5:35 PM 53.6 °F - 32.0 °F 44% 30.31 in 10.0 mi NNW 5.8 mph - N/A   Clear
5:55 PM 53.6 °F - 32.0 °F 44% 30.32 in 10.0 mi NNW 4.6 mph - N/A   Clear
6:15 PM 51.8 °F - 32.0 °F 47% 30.32 in 10.0 mi Calm Calm - N/A   Clear
6:35 PM 50.0 °F - 33.8 °F 54% 30.33 in 10.0 mi Calm Calm - N/A   Clear
6:55 PM 46.4 °F 45.2 °F 33.8 °F 62% 30.33 in 10.0 mi NW 3.5 mph - N/A   Clear
7:15 PM 48.2 °F - 33.8 °F 58% 30.34 in 10.0 mi NW 3.5 mph - N/A   Clear
7:35 PM 48.2 °F - 32.0 °F 54% 30.34 in 10.0 mi NW 4.6 mph - N/A   Clear
7:55 PM 48.2 °F - 33.8 °F 58% 30.34 in 10.0 mi NW 3.5 mph - N/A   Clear
8:15 PM 46.4 °F 45.2 °F 33.8 °F 62% 30.35 in 10.0 mi NW 3.5 mph - N/A   Clear
8:35 PM 46.4 °F 43.5 °F 33.8 °F 62% 30.35 in 10.0 mi NW 5.8 mph - N/A   Clear
8:55 PM 46.4 °F 43.5 °F 33.8 °F 62% 30.36 in 10.0 mi NW 5.8 mph - N/A   Clear
9:15 PM 46.4 °F 43.5 °F 33.8 °F 62% 30.36 in 10.0 mi NNW 5.8 mph - N/A   Clear
9:35 PM 46.4 °F 42.9 °F 32.0 °F 57% 30.37 in 10.0 mi NW 6.9 mph - N/A   Clear
9:55 PM 48.2 °F - 32.0 °F 54% 30.37 in 10.0 mi NNW 6.9 mph - N/A   Clear
10:15 PM 48.2 °F - 32.0 °F 54% 30.37 in 10.0 mi NNW 6.9 mph - N/A   Clear
10:35 PM 46.4 °F 43.5 °F 32.0 °F 57% 30.38 in 10.0 mi NNW 5.8 mph - N/A   Clear
10:55 PM 46.4 °F 42.9 °F 32.0 °F 57% 30.38 in 10.0 mi NNW 6.9 mph - N/A   Clear
11:15 PM 46.4 °F 42.9 °F 33.8 °F 62% 30.39 in 10.0 mi NNW 6.9 mph - N/A   Clear
11:35 PM 46.4 °F 42.4 °F 33.8 °F 62% 30.39 in 10.0 mi NNW 8.1 mph - N/A   Clear
11:55 PM 44.6 °F 41.4 °F 33.8 °F 66% 30.40 in 10.0 mi NNW 5.8 mph - N/A   Clear